Location: Aydie
(43.5695°N, 0.1043°W)
Time: 07:50:59
(UTC+00:00)

Cosmos 1072 Rocket - Pass Details

Date: 17 November 2025
Orbit: 947 x 1008 km, 82.9° (Epoch: 13 December)

Event Time Altitude Azimuth Distance (km) Brightness Sun altitude
Rises 17:47:26 0° 173° (S) 3,641 7.6 -13.4°
Reaches altitude 10° 17:49:58 10° 170° (S) 2,690 6.9 -13.9°
Maximum altitude 17:55:59 59° 93° (E) 1,098 4.5 -14.9°
Drops below altitude 10° 18:01:58 10° 15° (NNE) 2,682 6.5 -16.0°
Sets 18:04:29 0° 12° (NNE) 3,629 7.3 -16.4°
